This is the latest recevied weather packets stored in our database for station/object K3RUP-1. If no packets are shown the sender has not sent any weather packets the latest 1 day(s).
| Time | Temp. | Humidity | Pressure | Rain* | Wind** | Luminosity | Snow |
|---|---|---|---|---|---|---|---|
| 1777993898 | 25.56° C | 49% | 1011.3 hPa | 0 mm | 0 m/s | 356 W/m² | - |
| 1777993594 | 25.56° C | 51% | 1011.4 hPa | 0 mm | 0 m/s | 281 W/m² | - |
| 1777993291 | 25° C | 49% | 1011.4 hPa | 0 mm | 0 m/s | 225 W/m² | - |
| 1777992986 | 25° C | 51% | 1011.4 hPa | 0 mm | 0 m/s | 132 W/m² | - |
| 1777992685 | 24.44° C | 50% | 1011.6 hPa | 0 mm | 0 m/s | 198 W/m² | - |
| 1777992382 | 24.44° C | 49% | 1011.5 hPa | 0 mm | 0 m/s | 72 W/m² | - |
| 1777992080 | 24.44° C | 52% | 1011.5 hPa | 0 mm | 0 m/s | 225 W/m² | - |
| 1777991777 | 23.89° C | 52% | 1011.4 hPa | 0 mm | 0 m/s | 550 W/m² | - |
| 1777991474 | 23.33° C | 51% | 1011.5 hPa | 0 mm | 0 m/s | 65 W/m² | - |
| 1777991171 | 23.33° C | 51% | 1011.4 hPa | 0 mm | 0 m/s | 85 W/m² | - |
| 1777990869 | 23.33° C | 52% | 1011.5 hPa | 0 mm | 0 m/s | 68 W/m² | - |
| 1777990566 | 23.33° C | 52% | 1011.4 hPa | 0 mm | 0 m/s | 237 W/m² | - |
| 1777990263 | 22.22° C | 53% | 1011.4 hPa | 0 mm | 0 m/s | 548 W/m² | - |
| 1777989959 | 22.22° C | 53% | 1011.4 hPa | 0 mm | 0 m/s | 295 W/m² | - |
| 1777989656 | 21.67° C | 53% | 1011.5 hPa | 0 mm | 1.34 m/s, 318° | 153 W/m² | - |
| 1777989352 | 21.67° C | 55% | 1011.4 hPa | 0 mm | 0 m/s | 94 W/m² | - |
| 1777989049 | 21.67° C | 56% | 1011.3 hPa | 0 mm | 0 m/s | 156 W/m² | - |
| 1777988744 | 21.11° C | 55% | 1011.5 hPa | 0 mm | 0 m/s | 50 W/m² | - |
| 1777988443 | 21.11° C | 56% | 1011.5 hPa | 0 mm | 0 m/s | 60 W/m² | - |
| 1777988139 | 21.11° C | 56% | 1011.3 hPa | 0 mm | 0 m/s | 63 W/m² | - |
| 1777987835 | 21.11° C | 57% | 1011.7 hPa | 0 mm | 0 m/s | 49 W/m² | - |
| 1777987532 | 20.56° C | 57% | 1011.9 hPa | 0 mm | 0 m/s | 51 W/m² | - |
| 1777987230 | 20.56° C | 57% | 1011.8 hPa | 0 mm | 0 m/s | 49 W/m² | - |
| 1777986926 | 20° C | 58% | 1011.8 hPa | 0 mm | 0 m/s | 46 W/m² | - |
| 1777986624 | 20° C | 58% | 1011.9 hPa | 0 mm | 0 m/s | 46 W/m² | - |
* Rain latest hour (hover to see other rain measurements)
** Current wind speed in m/s (hover to see current wind gust speed)